Year,Month,Day,Hour,Minute,Value (Times are PST for temperature in C)
2009,08,19,00,00,17.20
2009,08,19,00,01,17.20
2009,08,19,00,02,17.20
2009,08,19,00,03,17.10
2009,08,19,00,04,17.10
2009,08,19,00,05,17.10
2009,08,19,00,06,17.10
2009,08,19,00,07,17.10
2009,08,19,00,08,17.10
2009,08,19,00,09,17.10
2009,08,19,00,10,17.00
2009,08,19,00,11,17.00
2009,08,19,00,12,16.90
2009,08,19,00,13,16.90
2009,08,19,00,14,16.90
2009,08,19,00,15,17.10
2009,08,19,00,16,17.20
2009,08,19,00,17,17.30
2009,08,19,00,18,17.40
2009,08,19,00,19,17.50
2009,08,19,00,20,17.50
2009,08,19,00,21,17.60
2009,08,19,00,22,17.60
2009,08,19,00,23,17.60
2009,08,19,00,24,17.60
2009,08,19,00,25,17.60
2009,08,19,00,26,17.60
2009,08,19,00,27,17.60
2009,08,19,00,28,17.60
2009,08,19,00,29,17.60
2009,08,19,00,30,17.60
2009,08,19,00,31,17.60
2009,08,19,00,32,17.60
2009,08,19,00,33,17.60
2009,08,19,00,34,17.60
2009,08,19,00,35,17.60
2009,08,19,00,36,17.60
2009,08,19,00,37,17.60
2009,08,19,00,38,17.60
2009,08,19,00,39,17.50
2009,08,19,00,40,17.50
2009,08,19,00,41,17.50
2009,08,19,00,42,17.50
2009,08,19,00,43,17.40
2009,08,19,00,44,17.40
2009,08,19,00,45,17.40
2009,08,19,00,46,17.40
2009,08,19,00,47,17.40
2009,08,19,00,48,17.40
2009,08,19,00,49,17.40
2009,08,19,00,50,17.40
2009,08,19,00,51,17.40
2009,08,19,00,52,17.40
2009,08,19,00,53,17.40
2009,08,19,00,54,17.40
2009,08,19,00,55,17.30
2009,08,19,00,56,17.30
2009,08,19,00,57,17.30
2009,08,19,00,58,17.30
2009,08,19,00,59,17.20
2009,08,19,01,00,17.20
2009,08,19,01,01,17.10
2009,08,19,01,02,17.10
2009,08,19,01,03,17.00
2009,08,19,01,04,17.00
2009,08,19,01,05,16.90
2009,08,19,01,06,16.90
2009,08,19,01,07,16.90
2009,08,19,01,08,16.80
2009,08,19,01,09,16.80
2009,08,19,01,10,16.80
2009,08,19,01,11,16.70
2009,08,19,01,12,16.70
2009,08,19,01,13,16.70
2009,08,19,01,14,16.60
2009,08,19,01,15,16.60
2009,08,19,01,16,16.60
2009,08,19,01,17,16.60
2009,08,19,01,18,16.60
2009,08,19,01,19,16.50
2009,08,19,01,20,16.50
2009,08,19,01,21,16.50
2009,08,19,01,22,16.40
2009,08,19,01,23,16.40
2009,08,19,01,24,16.40
2009,08,19,01,25,16.40
2009,08,19,01,26,16.40
2009,08,19,01,27,16.40
2009,08,19,01,28,16.30
2009,08,19,01,29,16.40
2009,08,19,01,30,16.30
2009,08,19,01,31,16.30
2009,08,19,01,32,16.30
2009,08,19,01,33,16.30
2009,08,19,01,34,16.30
2009,08,19,01,35,16.30
2009,08,19,01,36,16.30
2009,08,19,01,37,16.30
2009,08,19,01,38,16.30
2009,08,19,01,39,16.30
2009,08,19,01,40,16.30
2009,08,19,01,41,16.30
2009,08,19,01,42,16.20
2009,08,19,01,43,16.20
2009,08,19,01,44,16.20
2009,08,19,01,45,16.20
2009,08,19,01,46,16.20
2009,08,19,01,47,16.20
2009,08,19,01,48,16.20
2009,08,19,01,49,16.20
2009,08,19,01,50,16.10
2009,08,19,01,51,16.10
2009,08,19,01,52,16.10
2009,08,19,01,53,16.10
2009,08,19,01,54,16.10
2009,08,19,01,55,16.10
2009,08,19,01,56,16.10
2009,08,19,01,57,16.00
2009,08,19,01,58,16.00
2009,08,19,01,59,16.00
2009,08,19,02,00,16.00
2009,08,19,02,01,16.00
2009,08,19,02,02,15.90
2009,08,19,02,03,15.90
2009,08,19,02,04,15.90
2009,08,19,02,05,15.90
2009,08,19,02,06,15.90
2009,08,19,02,07,15.90
2009,08,19,02,08,15.80
2009,08,19,02,09,15.80
2009,08,19,02,10,15.80
2009,08,19,02,11,15.80
2009,08,19,02,12,15.80
2009,08,19,02,13,15.70
2009,08,19,02,14,15.70
2009,08,19,02,15,15.70
2009,08,19,02,16,15.70
2009,08,19,02,17,15.70
2009,08,19,02,18,15.70
2009,08,19,02,19,15.70
2009,08,19,02,20,15.70
2009,08,19,02,21,15.70
2009,08,19,02,22,15.70
2009,08,19,02,23,15.70
2009,08,19,02,24,15.80
2009,08,19,02,25,15.80
2009,08,19,02,26,15.90
2009,08,19,02,27,15.90
2009,08,19,02,28,16.00
2009,08,19,02,29,16.00
2009,08,19,02,30,16.10
2009,08,19,02,31,16.10
2009,08,19,02,32,16.10
2009,08,19,02,33,16.10
2009,08,19,02,34,16.20
2009,08,19,02,35,16.20
2009,08,19,02,36,16.20
2009,08,19,02,37,16.20
2009,08,19,02,38,16.20
2009,08,19,02,39,16.20
2009,08,19,02,40,16.20
2009,08,19,02,41,16.20
2009,08,19,02,42,16.20
2009,08,19,02,43,16.20
2009,08,19,02,44,16.20
2009,08,19,02,45,16.20
2009,08,19,02,46,16.10
2009,08,19,02,47,16.10
2009,08,19,02,48,16.10
2009,08,19,02,49,16.10
2009,08,19,02,50,16.00
2009,08,19,02,51,16.00
2009,08,19,02,52,16.00
2009,08,19,02,53,15.90
2009,08,19,02,54,15.90
2009,08,19,02,55,15.90
2009,08,19,02,56,15.90
2009,08,19,02,57,15.90
2009,08,19,02,58,15.80
2009,08,19,02,59,15.80
2009,08,19,03,00,15.80
2009,08,19,03,01,15.80
2009,08,19,03,02,15.80
2009,08,19,03,03,15.70
2009,08,19,03,04,15.70
2009,08,19,03,05,15.70
2009,08,19,03,06,15.70
2009,08,19,03,07,15.60
2009,08,19,03,08,15.60
2009,08,19,03,09,15.60
2009,08,19,03,10,15.60
2009,08,19,03,11,15.60
2009,08,19,03,12,15.50
2009,08,19,03,13,15.50
2009,08,19,03,14,15.50
2009,08,19,03,15,15.50
2009,08,19,03,16,15.40
2009,08,19,03,17,15.40
2009,08,19,03,18,15.40
2009,08,19,03,19,15.40
2009,08,19,03,20,15.30
2009,08,19,03,21,15.30
2009,08,19,03,22,15.30
2009,08,19,03,23,15.30
2009,08,19,03,24,15.30
2009,08,19,03,25,15.30
2009,08,19,03,26,15.20
2009,08,19,03,27,15.20
2009,08,19,03,28,15.20
2009,08,19,03,29,15.20
2009,08,19,03,30,15.10
2009,08,19,03,31,15.10
2009,08,19,03,32,15.10
2009,08,19,03,33,15.10
2009,08,19,03,34,15.00
2009,08,19,03,35,15.00
2009,08,19,03,36,15.00
2009,08,19,03,37,15.00
2009,08,19,03,38,15.00
2009,08,19,03,39,15.00
2009,08,19,03,40,15.00
2009,08,19,03,41,15.00
2009,08,19,03,42,15.00
2009,08,19,03,43,15.00
2009,08,19,03,44,15.00
2009,08,19,03,45,15.00
2009,08,19,03,46,15.00
2009,08,19,03,47,15.00
2009,08,19,03,48,15.00
2009,08,19,03,49,15.00
2009,08,19,03,50,15.00
2009,08,19,03,51,15.00
2009,08,19,03,52,15.00
2009,08,19,03,53,15.00
2009,08,19,03,54,15.00
2009,08,19,03,55,15.00
2009,08,19,03,56,14.90
2009,08,19,03,57,14.90
2009,08,19,03,58,14.90
2009,08,19,03,59,14.90
2009,08,19,04,00,14.90
2009,08,19,04,01,14.90
2009,08,19,04,02,14.80
2009,08,19,04,03,14.80
2009,08,19,04,04,14.80
2009,08,19,04,05,14.80
2009,08,19,04,06,14.80
2009,08,19,04,07,14.70
2009,08,19,04,08,14.70
2009,08,19,04,09,14.70
2009,08,19,04,10,14.70
2009,08,19,04,11,14.70
2009,08,19,04,12,14.70
2009,08,19,04,13,14.70
2009,08,19,04,14,14.70
2009,08,19,04,15,14.70
2009,08,19,04,16,14.70
2009,08,19,04,17,14.70
2009,08,19,04,18,14.60
2009,08,19,04,19,14.60
2009,08,19,04,20,14.60
2009,08,19,04,21,14.60
2009,08,19,04,22,14.60
2009,08,19,04,23,14.50
2009,08,19,04,24,14.50
2009,08,19,04,25,14.50
2009,08,19,04,26,14.50
2009,08,19,04,27,14.50
2009,08,19,04,28,14.50
2009,08,19,04,29,14.40
2009,08,19,04,30,14.40
2009,08,19,04,31,14.40
2009,08,19,04,32,14.40
2009,08,19,04,33,14.40
2009,08,19,04,34,14.40
2009,08,19,04,35,14.40
2009,08,19,04,36,14.40
2009,08,19,04,37,14.40
2009,08,19,04,38,14.40
2009,08,19,04,39,14.40
2009,08,19,04,40,14.40
2009,08,19,04,41,14.40
2009,08,19,04,42,14.40
2009,08,19,04,43,14.40
2009,08,19,04,44,14.40
2009,08,19,04,45,14.40
2009,08,19,04,46,14.40
2009,08,19,04,47,14.40
2009,08,19,04,48,14.40
2009,08,19,04,49,14.40
2009,08,19,04,50,14.40
2009,08,19,04,51,14.40
2009,08,19,04,52,14.40
2009,08,19,04,53,14.40
2009,08,19,04,54,14.40
2009,08,19,04,55,14.40
2009,08,19,04,56,14.40
2009,08,19,04,57,14.40
2009,08,19,04,58,14.40
2009,08,19,04,59,14.40
2009,08,19,05,00,14.50
2009,08,19,05,01,14.50
2009,08,19,05,02,14.50
2009,08,19,05,03,14.50
2009,08,19,05,04,14.50
2009,08,19,05,05,14.50
2009,08,19,05,06,14.50
2009,08,19,05,07,14.60
2009,08,19,05,08,14.60
2009,08,19,05,09,14.60
2009,08,19,05,10,14.60
2009,08,19,05,11,14.60
2009,08,19,05,12,14.60
2009,08,19,05,13,14.60
2009,08,19,05,14,14.60
2009,08,19,05,15,14.60
2009,08,19,05,16,14.50
2009,08,19,05,17,14.50
2009,08,19,05,18,14.40
2009,08,19,05,19,14.40
2009,08,19,05,20,14.40
2009,08,19,05,21,14.40
2009,08,19,05,22,14.40
2009,08,19,05,23,14.40
2009,08,19,05,24,14.40
2009,08,19,05,25,14.40
2009,08,19,05,26,14.40
2009,08,19,05,27,14.30
2009,08,19,05,28,14.30
2009,08,19,05,29,14.30
2009,08,19,05,30,14.30
2009,08,19,05,31,14.30
2009,08,19,05,32,14.30
2009,08,19,05,33,14.30
2009,08,19,05,34,14.30
2009,08,19,05,35,14.20
2009,08,19,05,36,14.20
2009,08,19,05,37,14.20
2009,08,19,05,38,14.20
2009,08,19,05,39,14.20
2009,08,19,05,40,14.20
2009,08,19,05,41,14.20
2009,08,19,05,42,14.20
2009,08,19,05,43,14.20
2009,08,19,05,44,14.20
2009,08,19,05,45,14.10
2009,08,19,05,46,14.10
2009,08,19,05,47,14.10
2009,08,19,05,48,14.10
2009,08,19,05,49,14.10
2009,08,19,05,50,14.10
2009,08,19,05,51,14.10
2009,08,19,05,52,14.10
2009,08,19,05,53,14.10
2009,08,19,05,54,14.10
2009,08,19,05,55,14.10
2009,08,19,05,56,14.00
2009,08,19,05,57,14.00
2009,08,19,05,58,14.00
2009,08,19,05,59,14.00
2009,08,19,06,00,14.00
2009,08,19,06,01,13.90
2009,08,19,06,02,13.90
2009,08,19,06,03,13.90
2009,08,19,06,04,13.90
2009,08,19,06,05,13.90
2009,08,19,06,06,13.90
2009,08,19,06,07,13.80
2009,08,19,06,08,13.80
2009,08,19,06,09,13.80
2009,08,19,06,10,13.80
2009,08,19,06,11,13.80
2009,08,19,06,12,13.80
2009,08,19,06,13,13.80
2009,08,19,06,14,13.80
2009,08,19,06,15,13.80
2009,08,19,06,16,13.80
2009,08,19,06,17,13.80
2009,08,19,06,18,13.80
2009,08,19,06,19,13.80
2009,08,19,06,20,13.80
2009,08,19,06,21,13.70
2009,08,19,06,22,13.70
2009,08,19,06,23,13.70
2009,08,19,06,24,13.70
2009,08,19,06,25,13.70
2009,08,19,06,26,13.70
2009,08,19,06,27,13.70
2009,08,19,06,28,13.70
2009,08,19,06,29,13.70
2009,08,19,06,30,13.60
2009,08,19,06,31,13.60
2009,08,19,06,32,13.60
2009,08,19,06,33,13.60
2009,08,19,06,34,13.60
2009,08,19,06,35,13.60
2009,08,19,06,36,13.60
2009,08,19,06,37,13.60
2009,08,19,06,38,13.60
2009,08,19,06,39,13.60
2009,08,19,06,40,13.60
2009,08,19,06,41,13.60
2009,08,19,06,42,13.60
2009,08,19,06,43,13.60
2009,08,19,06,44,13.60
2009,08,19,06,45,13.60
2009,08,19,06,46,13.60
2009,08,19,06,47,13.60
2009,08,19,06,48,13.60
2009,08,19,06,49,13.60
2009,08,19,06,50,13.60
2009,08,19,06,51,13.60
2009,08,19,06,52,13.60
2009,08,19,06,53,13.60
2009,08,19,06,54,13.60
2009,08,19,06,55,13.60
2009,08,19,06,56,13.60
2009,08,19,06,57,13.60
2009,08,19,06,58,13.60
2009,08,19,06,59,13.60
2009,08,19,07,00,13.60
2009,08,19,07,01,13.60
2009,08,19,07,02,13.60
2009,08,19,07,03,13.60
2009,08,19,07,04,13.60
2009,08,19,07,05,13.60
2009,08,19,07,06,13.70
2009,08,19,07,07,13.70
2009,08,19,07,08,13.70
2009,08,19,07,09,13.70
2009,08,19,07,10,13.70
2009,08,19,07,11,13.70
2009,08,19,07,12,13.70
2009,08,19,07,13,13.70
2009,08,19,07,14,13.80
2009,08,19,07,15,13.80
2009,08,19,07,16,13.80
2009,08,19,07,17,13.90
2009,08,19,07,18,13.90
2009,08,19,07,19,14.00
2009,08,19,07,20,14.00
2009,08,19,07,21,14.10
2009,08,19,07,22,14.20
2009,08,19,07,23,14.20
2009,08,19,07,24,14.30
2009,08,19,07,25,14.30
2009,08,19,07,26,14.40
2009,08,19,07,27,14.50
2009,08,19,07,28,14.60
2009,08,19,07,29,14.60
2009,08,19,07,30,14.70
2009,08,19,07,31,14.70
2009,08,19,07,32,14.80
2009,08,19,07,33,14.80
2009,08,19,07,34,14.90
2009,08,19,07,35,15.00
2009,08,19,07,36,15.00
2009,08,19,07,37,15.00
2009,08,19,07,38,15.00
2009,08,19,07,39,15.00
2009,08,19,07,40,15.10
2009,08,19,07,41,15.20
2009,08,19,07,42,15.30
2009,08,19,07,43,15.40
2009,08,19,07,44,15.50
2009,08,19,07,45,15.60
2009,08,19,07,46,15.70
2009,08,19,07,47,15.80
2009,08,19,07,48,15.90
2009,08,19,07,49,16.00
2009,08,19,07,50,16.10
2009,08,19,07,51,16.30
2009,08,19,07,52,16.30
2009,08,19,07,53,16.40
2009,08,19,07,54,16.50
2009,08,19,07,55,16.50
2009,08,19,07,56,16.60
2009,08,19,07,57,16.70
2009,08,19,07,58,16.70
2009,08,19,07,59,16.80
2009,08,19,08,00,16.80
2009,08,19,08,01,16.90
2009,08,19,08,02,16.90
2009,08,19,08,03,17.00
2009,08,19,08,04,17.10
2009,08,19,08,05,17.20
2009,08,19,08,06,17.20
2009,08,19,08,07,17.30
2009,08,19,08,08,17.30
2009,08,19,08,09,17.40
2009,08,19,08,10,17.40
2009,08,19,08,11,17.50
2009,08,19,08,12,17.60
2009,08,19,08,13,17.60
2009,08,19,08,14,17.70
2009,08,19,08,15,17.70
2009,08,19,08,16,17.80
2009,08,19,08,17,17.80
2009,08,19,08,18,17.80
2009,08,19,08,19,17.80
2009,08,19,08,20,17.90
2009,08,19,08,21,17.90
2009,08,19,08,22,18.00
2009,08,19,08,23,18.00
2009,08,19,08,24,18.10
2009,08,19,08,25,18.20
2009,08,19,08,26,18.20
2009,08,19,08,27,18.20
2009,08,19,08,28,18.30
2009,08,19,08,29,18.30
2009,08,19,08,30,18.30
2009,08,19,08,31,18.40
2009,08,19,08,32,18.40
2009,08,19,08,33,18.40
2009,08,19,08,34,18.40
2009,08,19,08,35,18.40
2009,08,19,08,36,18.40
2009,08,19,08,37,18.50
2009,08,19,08,38,18.50
2009,08,19,08,39,18.50
2009,08,19,08,40,18.60
2009,08,19,08,41,18.60
2009,08,19,08,42,18.60
2009,08,19,08,43,18.70
2009,08,19,08,44,18.80
2009,08,19,08,45,18.80
2009,08,19,08,46,18.90
2009,08,19,08,47,19.00
2009,08,19,08,48,19.00
2009,08,19,08,49,19.10
2009,08,19,08,50,19.10
2009,08,19,08,51,19.10
2009,08,19,08,52,19.10
2009,08,19,08,53,19.20
2009,08,19,08,54,19.20
2009,08,19,08,55,19.20
2009,08,19,08,56,19.20
2009,08,19,08,57,19.20
2009,08,19,08,58,19.20
2009,08,19,08,59,19.20
2009,08,19,09,00,19.30
2009,08,19,09,01,19.30
2009,08,19,09,02,19.30
2009,08,19,09,03,19.30
2009,08,19,09,04,19.30
2009,08,19,09,05,19.40
2009,08,19,09,06,19.40
2009,08,19,09,07,19.50
2009,08,19,09,08,19.60
2009,08,19,09,09,19.60
2009,08,19,09,10,19.70
2009,08,19,09,11,19.70
2009,08,19,09,12,19.80
2009,08,19,09,13,19.90
2009,08,19,09,14,19.90
2009,08,19,09,15,20.00
2009,08,19,09,16,20.00
2009,08,19,09,17,20.10
2009,08,19,09,18,20.10
2009,08,19,09,19,20.20
2009,08,19,09,20,20.20
2009,08,19,09,21,20.20
2009,08,19,09,22,20.30
2009,08,19,09,23,20.30
2009,08,19,09,24,20.30
2009,08,19,09,25,20.40
2009,08,19,09,26,20.40
2009,08,19,09,27,20.40
2009,08,19,09,28,20.40
2009,08,19,09,29,20.40
2009,08,19,09,30,20.50
2009,08,19,09,31,20.50
2009,08,19,09,32,20.60
2009,08,19,09,33,20.60
2009,08,19,09,34,20.70
2009,08,19,09,35,20.70
2009,08,19,09,36,20.70
2009,08,19,09,37,20.80
2009,08,19,09,38,20.80
2009,08,19,09,39,20.90
2009,08,19,09,40,21.00
2009,08,19,09,41,21.10
2009,08,19,09,42,21.10
2009,08,19,09,43,21.20
2009,08,19,09,44,21.30
2009,08,19,09,45,21.30
2009,08,19,09,46,21.30
2009,08,19,09,47,21.30
2009,08,19,09,48,21.40
2009,08,19,09,49,21.40
2009,08,19,09,50,21.40
2009,08,19,09,51,21.40
2009,08,19,09,52,21.40
2009,08,19,09,53,21.40
2009,08,19,09,54,21.40
2009,08,19,09,55,21.40
2009,08,19,09,56,21.50
2009,08,19,09,57,21.60
2009,08,19,09,58,21.70
2009,08,19,09,59,21.80
2009,08,19,10,00,21.80
2009,08,19,10,01,21.90
2009,08,19,10,02,22.00
2009,08,19,10,03,22.10
2009,08,19,10,04,22.20
2009,08,19,10,05,22.40
2009,08,19,10,06,22.50
2009,08,19,10,07,22.60
2009,08,19,10,08,22.80
2009,08,19,10,09,22.90
2009,08,19,10,10,23.00
2009,08,19,10,11,23.10
2009,08,19,10,12,23.10
2009,08,19,10,13,23.10
2009,08,19,10,14,23.10
2009,08,19,10,15,23.10
2009,08,19,10,16,23.20
2009,08,19,10,17,23.20
2009,08,19,10,18,23.30
2009,08,19,10,19,23.30
2009,08,19,10,20,23.40
2009,08,19,10,21,23.40
2009,08,19,10,22,23.50
2009,08,19,10,23,23.50
2009,08,19,10,24,23.60
2009,08,19,10,25,23.60
2009,08,19,10,26,23.60
2009,08,19,10,27,23.60
2009,08,19,10,28,23.70
2009,08,19,10,29,23.70
2009,08,19,10,30,23.70
2009,08,19,10,31,23.80
2009,08,19,10,32,23.80
2009,08,19,10,33,23.80
2009,08,19,10,34,23.80
2009,08,19,10,35,23.80
2009,08,19,10,36,23.90
2009,08,19,10,37,23.90
2009,08,19,10,38,24.00
2009,08,19,10,39,24.00
2009,08,19,10,40,24.10
2009,08,19,10,41,24.10
2009,08,19,10,42,24.10
2009,08,19,10,43,24.10
2009,08,19,10,44,24.10
2009,08,19,10,45,24.20
2009,08,19,10,46,24.20
2009,08,19,10,47,24.30
2009,08,19,10,48,24.30
2009,08,19,10,49,24.30
2009,08,19,10,50,24.30
2009,08,19,10,51,24.30
2009,08,19,10,52,24.30
2009,08,19,10,53,24.40
2009,08,19,10,54,24.40
2009,08,19,10,55,24.40
2009,08,19,10,56,24.40
2009,08,19,10,57,24.50
2009,08,19,10,58,24.40
2009,08,19,10,59,24.40
2009,08,19,11,00,24.30
2009,08,19,11,01,24.30
2009,08,19,11,02,24.30
2009,08,19,11,03,24.40
2009,08,19,11,04,24.40
2009,08,19,11,05,24.40
2009,08,19,11,06,24.40
2009,08,19,11,07,24.50
2009,08,19,11,08,24.50
2009,08,19,11,09,24.60
2009,08,19,11,10,24.60
2009,08,19,11,11,24.60
2009,08,19,11,12,24.50
2009,08,19,11,13,24.50
2009,08,19,11,14,24.30
2009,08,19,11,15,24.20
2009,08,19,11,16,24.10
2009,08,19,11,17,24.10
2009,08,19,11,18,24.10
2009,08,19,11,19,24.10
2009,08,19,11,20,24.00
2009,08,19,11,21,23.80
2009,08,19,11,22,23.80
2009,08,19,11,23,23.80
2009,08,19,11,24,23.80
2009,08,19,11,25,23.80
2009,08,19,11,26,23.80
2009,08,19,11,27,23.80
2009,08,19,11,28,23.90
2009,08,19,11,29,23.90
2009,08,19,11,30,24.00
2009,08,19,11,31,24.10
2009,08,19,11,32,24.20
2009,08,19,11,33,24.10
2009,08,19,11,34,24.20
2009,08,19,11,35,24.20
2009,08,19,11,36,24.20
2009,08,19,11,37,24.20
2009,08,19,11,38,24.10
2009,08,19,11,39,24.10
2009,08,19,11,40,24.10
2009,08,19,11,41,24.20
2009,08,19,11,42,24.20
2009,08,19,11,43,24.20
2009,08,19,11,44,24.10
2009,08,19,11,45,24.10
2009,08,19,11,46,24.00
2009,08,19,11,47,23.90
2009,08,19,11,48,23.90
2009,08,19,11,49,23.90
2009,08,19,11,50,23.90
2009,08,19,11,51,24.00
2009,08,19,11,52,24.10
2009,08,19,11,53,24.20
2009,08,19,11,54,24.30
2009,08,19,11,55,24.30
2009,08,19,11,56,24.40
2009,08,19,11,57,24.40
2009,08,19,11,58,24.40
2009,08,19,11,59,24.40
2009,08,19,12,00,24.40
2009,08,19,12,01,24.40
2009,08,19,12,02,24.40
2009,08,19,12,03,24.40
2009,08,19,12,04,24.40
2009,08,19,12,05,24.50
2009,08,19,12,06,24.40
2009,08,19,12,07,24.40
2009,08,19,12,08,24.40
2009,08,19,12,09,24.50
2009,08,19,12,10,24.50
2009,08,19,12,11,24.50
2009,08,19,12,12,24.60
2009,08,19,12,13,24.70
2009,08,19,12,14,24.70
2009,08,19,12,15,24.80
2009,08,19,12,16,24.80
2009,08,19,12,17,24.80
2009,08,19,12,18,24.90
2009,08,19,12,19,24.90
2009,08,19,12,20,25.00
2009,08,19,12,21,25.00
2009,08,19,12,22,24.90
2009,08,19,12,23,24.90
2009,08,19,12,24,25.00
2009,08,19,12,25,25.00
2009,08,19,12,26,25.00
2009,08,19,12,27,25.00
2009,08,19,12,28,25.10
2009,08,19,12,29,25.10
2009,08,19,12,30,25.10
2009,08,19,12,31,25.10
2009,08,19,12,32,25.20
2009,08,19,12,33,25.30
2009,08,19,12,34,25.40
2009,08,19,12,35,25.50
2009,08,19,12,36,25.50
2009,08,19,12,37,25.50
2009,08,19,12,38,25.40
2009,08,19,12,39,25.40
2009,08,19,12,40,25.40
2009,08,19,12,41,25.50
2009,08,19,12,42,25.50
2009,08,19,12,43,25.50
2009,08,19,12,44,25.50
2009,08,19,12,45,25.60
2009,08,19,12,46,25.60
2009,08,19,12,47,25.60
2009,08,19,12,48,25.60
2009,08,19,12,49,25.60
2009,08,19,12,50,25.60
2009,08,19,12,51,25.60
2009,08,19,12,52,25.70
2009,08,19,12,53,25.80
2009,08,19,12,54,25.90
2009,08,19,12,55,25.90
2009,08,19,12,56,25.90
2009,08,19,12,57,25.90
2009,08,19,12,58,26.10
2009,08,19,12,59,26.20
2009,08,19,13,00,26.20
2009,08,19,13,01,26.30
2009,08,19,13,02,26.40
2009,08,19,13,03,26.50
2009,08,19,13,04,26.50
2009,08,19,13,05,26.60
2009,08,19,13,06,26.70
2009,08,19,13,07,26.80
2009,08,19,13,08,26.90
2009,08,19,13,09,27.00
2009,08,19,13,10,27.10
2009,08,19,13,11,27.10
2009,08,19,13,12,27.20
2009,08,19,13,13,27.30
2009,08,19,13,14,27.30
2009,08,19,13,15,27.30
2009,08,19,13,16,27.30
2009,08,19,13,17,27.20
2009,08,19,13,18,27.10
2009,08,19,13,19,27.00
2009,08,19,13,20,26.90
2009,08,19,13,21,27.00
2009,08,19,13,22,26.90
2009,08,19,13,23,26.80
2009,08,19,13,24,26.80
2009,08,19,13,25,26.70
2009,08,19,13,26,26.60
2009,08,19,13,27,26.50
2009,08,19,13,28,26.30
2009,08,19,13,29,26.20
2009,08,19,13,30,26.20
2009,08,19,13,31,26.20
2009,08,19,13,32,26.20
2009,08,19,13,33,26.30
2009,08,19,13,34,26.30
2009,08,19,13,35,26.40
2009,08,19,13,36,26.40
2009,08,19,13,37,26.40
2009,08,19,13,38,26.20
2009,08,19,13,39,26.20
2009,08,19,13,40,26.20
2009,08,19,13,41,26.30
2009,08,19,13,42,26.40
2009,08,19,13,43,26.40
2009,08,19,13,44,26.40
2009,08,19,13,45,26.40
2009,08,19,13,46,26.40
2009,08,19,13,47,26.40
2009,08,19,13,48,26.40
2009,08,19,13,49,26.40
2009,08,19,13,50,26.40
2009,08,19,13,51,26.50
2009,08,19,13,52,26.50
2009,08,19,13,53,26.50
2009,08,19,13,54,26.50
2009,08,19,13,55,26.60
2009,08,19,13,56,26.70
2009,08,19,13,57,26.70
2009,08,19,13,58,26.70
2009,08,19,13,59,26.70
2009,08,19,14,00,26.70
2009,08,19,14,01,26.80
2009,08,19,14,02,26.80
2009,08,19,14,03,26.80
2009,08,19,14,04,26.80
2009,08,19,14,05,26.80
2009,08,19,14,06,26.80
2009,08,19,14,07,26.80
2009,08,19,14,08,26.80
2009,08,19,14,09,26.70
2009,08,19,14,10,26.60
2009,08,19,14,11,26.40
2009,08,19,14,12,26.40
2009,08,19,14,13,26.30
2009,08,19,14,14,26.30
2009,08,19,14,15,26.30
2009,08,19,14,16,26.20
2009,08,19,14,17,26.20
2009,08,19,14,18,26.20
2009,08,19,14,19,26.20
2009,08,19,14,20,26.30
2009,08,19,14,21,26.40
2009,08,19,14,22,26.40
2009,08,19,14,23,26.40
2009,08,19,14,24,26.40
2009,08,19,14,25,26.40
2009,08,19,14,26,26.40
2009,08,19,14,27,26.40
2009,08,19,14,28,26.50
2009,08,19,14,29,26.60
2009,08,19,14,30,26.70
2009,08,19,14,31,26.80
2009,08,19,14,32,26.90
2009,08,19,14,33,26.90
2009,08,19,14,34,26.90
2009,08,19,14,35,27.00
2009,08,19,14,36,27.00
2009,08,19,14,37,27.10
2009,08,19,14,38,27.20
2009,08,19,14,39,27.20
2009,08,19,14,40,27.20
2009,08,19,14,41,27.30
2009,08,19,14,42,27.30
2009,08,19,14,43,27.30
2009,08,19,14,44,27.40
2009,08,19,14,45,27.30
2009,08,19,14,46,27.30
2009,08,19,14,47,27.30
2009,08,19,14,48,27.40
2009,08,19,14,49,27.40
2009,08,19,14,50,27.30
2009,08,19,14,51,27.30
2009,08,19,14,52,27.30
2009,08,19,14,53,27.30
2009,08,19,14,54,27.40
2009,08,19,14,55,27.50
2009,08,19,14,56,27.40
2009,08,19,14,57,27.40
2009,08,19,14,58,27.40
2009,08,19,14,59,27.30
2009,08,19,15,00,27.20
2009,08,19,15,01,27.20
2009,08,19,15,02,27.10
2009,08,19,15,03,27.00
2009,08,19,15,04,26.90
2009,08,19,15,05,26.80
2009,08,19,15,06,26.90
2009,08,19,15,07,26.90
2009,08,19,15,08,27.00
2009,08,19,15,09,27.10
2009,08,19,15,10,27.20
2009,08,19,15,11,27.30
2009,08,19,15,12,27.40
2009,08,19,15,13,27.40
2009,08,19,15,14,27.40
2009,08,19,15,15,27.50
2009,08,19,15,16,27.50
2009,08,19,15,17,27.70
2009,08,19,15,18,27.80
2009,08,19,15,19,27.80
2009,08,19,15,20,27.60
2009,08,19,15,21,27.50
2009,08,19,15,22,27.30
2009,08,19,15,23,27.30
2009,08,19,15,24,27.30
2009,08,19,15,25,27.30
2009,08,19,15,26,27.40
2009,08,19,15,27,27.40
2009,08,19,15,28,27.40
2009,08,19,15,29,27.40
2009,08,19,15,30,27.30
2009,08,19,15,31,27.30
2009,08,19,15,32,27.30
2009,08,19,15,33,27.30
2009,08,19,15,34,27.30
2009,08,19,15,35,27.30
2009,08,19,15,36,27.30
2009,08,19,15,37,27.40
2009,08,19,15,38,27.50
2009,08,19,15,39,27.50
2009,08,19,15,40,27.50
2009,08,19,15,41,27.50
2009,08,19,15,42,27.60
2009,08,19,15,43,27.60
2009,08,19,15,44,27.70
2009,08,19,15,45,27.70
2009,08,19,15,46,27.70
2009,08,19,15,47,27.70
2009,08,19,15,48,27.70
2009,08,19,15,49,27.70
2009,08,19,15,50,27.60
2009,08,19,15,51,27.50
2009,08,19,15,52,27.50
2009,08,19,15,53,27.50
2009,08,19,15,54,27.40
2009,08,19,15,55,27.40
2009,08,19,15,56,27.30
2009,08,19,15,57,27.30
2009,08,19,15,58,27.40
2009,08,19,15,59,27.50
2009,08,19,16,00,27.60
2009,08,19,16,01,27.70
2009,08,19,16,02,27.80
2009,08,19,16,03,27.80
2009,08,19,16,04,27.80
2009,08,19,16,05,27.80
2009,08,19,16,06,27.80
2009,08,19,16,07,27.80
2009,08,19,16,08,27.80
2009,08,19,16,09,27.70
2009,08,19,16,10,27.70
2009,08,19,16,11,27.60
2009,08,19,16,12,27.70
2009,08,19,16,13,27.70
2009,08,19,16,14,27.70
2009,08,19,16,15,27.60
2009,08,19,16,16,27.70
2009,08,19,16,17,27.70
2009,08,19,16,18,27.70
2009,08,19,16,19,27.60
2009,08,19,16,20,27.60
2009,08,19,16,21,27.50
2009,08,19,16,22,27.50
2009,08,19,16,23,27.60
2009,08,19,16,24,27.60
2009,08,19,16,25,27.50
2009,08,19,16,26,27.50
2009,08,19,16,27,27.50
2009,08,19,16,28,27.60
2009,08,19,16,29,27.60
2009,08,19,16,30,27.70
2009,08,19,16,31,27.70
2009,08,19,16,32,27.80
2009,08,19,16,33,27.80
2009,08,19,16,34,27.80
2009,08,19,16,35,27.80
2009,08,19,16,36,27.80
2009,08,19,16,37,27.60
2009,08,19,16,38,27.50
2009,08,19,16,39,27.40
2009,08,19,16,40,27.40
2009,08,19,16,41,27.40
2009,08,19,16,42,27.40
2009,08,19,16,43,27.40
2009,08,19,16,44,27.50
2009,08,19,16,45,27.60
2009,08,19,16,46,27.70
2009,08,19,16,47,27.70
2009,08,19,16,48,27.70
2009,08,19,16,49,27.70
2009,08,19,16,50,27.80
2009,08,19,16,51,27.90
2009,08,19,16,52,27.90
2009,08,19,16,53,27.90
2009,08,19,16,54,27.90
2009,08,19,16,55,27.90
2009,08,19,16,56,27.90
2009,08,19,16,57,27.90
2009,08,19,16,58,27.90
2009,08,19,16,59,27.90
2009,08,19,17,00,27.90
2009,08,19,17,01,27.80
2009,08,19,17,02,27.80
2009,08,19,17,03,27.80
2009,08,19,17,04,27.80
2009,08,19,17,05,27.80
2009,08,19,17,06,27.80
2009,08,19,17,07,27.80
2009,08,19,17,08,27.70
2009,08,19,17,09,27.60
2009,08,19,17,10,27.50
2009,08,19,17,11,27.50
2009,08,19,17,12,27.50
2009,08,19,17,13,27.40
2009,08,19,17,14,27.30
2009,08,19,17,15,27.30
2009,08,19,17,16,27.30
2009,08,19,17,17,27.30
2009,08,19,17,18,27.30
2009,08,19,17,19,27.20